Regional Weather Roundup
Issued by NWS

Home | Current Version | Previous Version | Graphics & Text | Print | Product List | Glossary On
Versions: 1 2 3 4 5 6 7 8 9 10 11 12 13 14 15 16 17 18 19 20 21 22 23 24 25 26 27 28 29 30 31 32 33 34 35 36 37 38 39 40 41 42 43 44 45 46 47 48 49 50
553
ASUS45 KCYS 210110
RWRWY

WYOMING REGIONAL WEATHER ROUNDUP
NATIONAL WEATHER SERVICE CHEYENNE WY
600 PM MST TUE FEB 20 2018

NOTE:  "FAIR" INDICATES FEW OR NO CLOUDS BELOW 12,000 FEET
WITH NO SIGNIFICANT WEATHER AND/OR OBSTRUCTIONS TO VISIBILITY.

WYZ001-210200-
YELLOWSTONE NATIONAL PARK

CITY           SKY/WX    TMP DP  RH WIND       PRES   REMARKS
LK YELLOWSTONE   N/A     -3 -10  72 VRB6      29.87R WCI -15
W YELLOWSTONE  NOT AVBL

$$
WYZ002>013-054>058-071-098>099-210200-
NORTHERN WYOMING

CITY           SKY/WX    TMP DP  RH WIND       PRES   REMARKS
JACKSON        MOCLDY     5  -4  66 S10       29.97R WCI -10
CODY           FAIR      -6 -11  79 NE7       30.02R WCI -20
GREYBULL       FAIR      -1  -9  68 E3        30.12R
WORLAND        FAIR      -7 -13  75 E5        30.08R WCI -18
SHERIDAN       FAIR      -3 -13  62 W3        30.10R
BUFFALO        FAIR       3 -11  52 SW5       30.03R WCI  -6
GILLETTE       FAIR      -6 -15  65 SW3       30.08R
HULETT         FAIR       3  -9  55 MISG      30.09S
NEWCASTLE      FAIR      -6 -13  71 NW8       30.13R WCI -21

$$
WYZ014>020-022>026-101>103-210200-
CENTRAL WYOMING

CITY           SKY/WX    TMP DP  RH WIND       PRES   REMARKS
BIG PINEY      LGT SNOW   6   1  80 NE5       29.95R WCI  -3
PINEDALE       CLOUDY     5   1  85 CALM      29.95R
DUBOIS           N/A    N/A N/A N/A MISG        N/A
LANDER         FAIR       0  -7  72 SE3       29.97R
RIVERTON       FAIR      -3 -11  68 NE3       29.99R
CASPER         FAIR       6  -2  69 S5        29.99R WCI  -3
DOUGLAS        FAIR      -6 -13  71 E6        30.07R WCI -19

$$
WYZ021-027>030-104>119-210200-
SOUTHERN WYOMING

CITY           SKY/WX    TMP DP  RH WIND       PRES   REMARKS
EVANSTON       FAIR       6   0  76 W9        29.97R WCI  -8
FORT BRIDGER   FAIR       9   1  69 W8        30.00R WCI  -3
ROCK SPRINGS   FAIR       8  -1  66 SW7       29.99R WCI  -3
DIXON          FAIR       2  -5  70 CALM      30.05R
RAWLINS        FAIR       7  -2  66 SW10      29.97R WCI  -8
SARATOGA       FAIR       1  -4  78 W9        29.98R WCI -14
LARAMIE        FAIR       1  -8  66 W8        29.91R WCI -13
CHEYENNE       FAIR       8   3  80 SW8       29.98R WCI  -4
TORRINGTON     FAIR       7  -2  66 E8        30.11R WCI  -6
PINE BLUFFS    FAIR       0  -8  71 MISG      30.06R

$$




USA.gov is the U.S. government's official web portal to all federal, state and local government web resources and services.